Wetterdaten: aktuell Samstag, 09.05.2026 16:18
Datum Zeit Temp. A. Feuchte A. Luftdruck Regen Wind Richtung Richtung Sonnenschein Regendauer Taupunkt Windchill
09.05.2026 16:18 20,8 °C 51 % 1013,5 hPa 0,0 mm 14,7 km/h (3 Bft) N-NO 25 ° 0 min 0 min 10,3 °C 20,8 °C
09.05.2026 16:13 21,0 °C 50 % 1012,4 hPa 0,0 mm 13,3 km/h (3 Bft) NW 305 ° 0 min 0 min 10,2 °C 21,0 °C
09.05.2026 16:08 20,8 °C 50 % 1012,5 hPa 0,0 mm 16,8 km/h (3 Bft) O 100 ° 0 min 0 min 10,0 °C 20,8 °C
09.05.2026 16:03 21,0 °C 50 % 1012,4 hPa 0,0 mm 16,0 km/h (3 Bft) NO 40 ° 0 min 0 min 10,2 °C 21,0 °C
09.05.2026 15:58 21,3 °C 48 % 1013,4 hPa 0,0 mm 16,6 km/h (3 Bft) O 90 ° 0 min 0 min 9,8 °C 21,3 °C
09.05.2026 15:53 21,4 °C 50 % 1013,4 hPa 0,0 mm 21,0 km/h (4 Bft) O-SO 115 ° 0 min 0 min 10,5 °C 21,4 °C
09.05.2026 15:48 22,0 °C 50 % 1013,3 hPa 0,0 mm 5,5 km/h (2 Bft) N-NW 340 ° 2 min 0 min 11,1 °C 22,0 °C
09.05.2026 15:43 22,3 °C 48 % 1013,3 hPa 0,0 mm 6,9 km/h (2 Bft) N 5 ° 1 min 0 min 10,8 °C 22,3 °C
09.05.2026 15:38 21,8 °C 50 % 1013,3 hPa 0,0 mm 2,2 km/h (1 Bft) S-SO 150 ° 3 min 0 min 10,9 °C 21,8 °C
09.05.2026 15:33 21,4 °C 51 % 1013,4 hPa 0,0 mm 10,3 km/h (2 Bft) S-SW 195 ° 6 min 0 min 10,8 °C 21,4 °C
09.05.2026 15:28 22,6 °C 47 % 1013,2 hPa 0,0 mm 11,3 km/h (2 Bft) O-SO 120 ° 4 min 0 min 10,7 °C 22,6 °C
09.05.2026 15:23 22,4 °C 50 % 1013,2 hPa 0,0 mm 11,3 km/h (2 Bft) O-SO 115 ° 6 min 0 min 11,5 °C 22,4 °C
09.05.2026 15:18 22,0 °C 50 % 1013,3 hPa 0,0 mm 20,5 km/h (4 Bft) O-NO 60 ° 5 min 0 min 11,1 °C 22,0 °C
09.05.2026 15:13 22,4 °C 51 % 1013,2 hPa 0,0 mm 11,5 km/h (2 Bft) O-SO 110 ° 5 min 0 min 11,8 °C 22,4 °C
09.05.2026 15:08 21,8 °C 50 % 1013,3 hPa 0,0 mm 14,2 km/h (3 Bft) SO 140 ° 5 min 0 min 10,9 °C 21,8 °C
09.05.2026 15:03 21,7 °C 52 % 1013,4 hPa 0,0 mm 13,6 km/h (3 Bft) N-NO 25 ° 5 min 0 min 11,4 °C 21,7 °C
09.05.2026 14:58 22,6 °C 51 % 1014,3 hPa 0,0 mm 16,4 km/h (3 Bft) SO 145 ° 5 min 0 min 11,9 °C 22,6 °C
09.05.2026 14:53 22,4 °C 50 % 1014,3 hPa 0,0 mm 3,2 km/h (1 Bft) SW 225 ° 5 min 0 min 11,5 °C 22,4 °C
09.05.2026 14:48 22,0 °C 51 % 1014,4 hPa 0,0 mm 6,0 km/h (2 Bft) SO 145 ° 6 min 0 min 11,4 °C 22,0 °C
09.05.2026 14:43 22,0 °C 51 % 1013,3 hPa 0,0 mm 3,7 km/h (1 Bft) O-SO 105 ° 4 min 0 min 11,4 °C 22,0 °C
09.05.2026 14:38 21,4 °C 56 % 1013,4 hPa 0,0 mm 7,1 km/h (2 Bft) S 185 ° 5 min 0 min 12,3 °C 21,4 °C
09.05.2026 14:33 19,8 °C 56 % 1013,7 hPa 0,0 mm 15,1 km/h (3 Bft) W-NW 290 ° 5 min 0 min 10,8 °C 19,8 °C
09.05.2026 14:28 19,8 °C 56 % 1014,8 hPa 0,0 mm 24,5 km/h (4 Bft) S-SW 195 ° 5 min 0 min 10,8 °C 19,8 °C
09.05.2026 14:23 20,8 °C 54 % 1014,6 hPa 0,0 mm 16,4 km/h (3 Bft) SW 235 ° 4 min 0 min 11,1 °C 20,8 °C
09.05.2026 14:18 20,6 °C 56 % 1014,6 hPa 0,0 mm 16,3 km/h (3 Bft) S 170 ° 5 min 0 min 11,5 °C 20,6 °C
09.05.2026 14:13 20,6 °C 55 % 1014,6 hPa 0,0 mm 20,5 km/h (4 Bft) S-SO 155 ° 5 min 0 min 11,2 °C 20,6 °C
09.05.2026 14:08 20,6 °C 55 % 1014,6 hPa 0,0 mm 23,8 km/h (4 Bft) S-SO 155 ° 5 min 0 min 11,2 °C 20,6 °C
09.05.2026 14:03 20,3 °C 55 % 1014,7 hPa 0,0 mm 20,3 km/h (4 Bft) O-SO 105 ° 5 min 0 min 11,0 °C 20,3 °C
09.05.2026 13:58 20,2 °C 56 % 1014,7 hPa 0,0 mm 20,6 km/h (4 Bft) S 190 ° 5 min 0 min 11,1 °C 20,2 °C
09.05.2026 13:53 19,4 °C 61 % 1014,8 hPa 0,0 mm 20,0 km/h (4 Bft) O 100 ° 6 min 0 min 11,7 °C 19,4 °C
09.05.2026 13:48 19,4 °C 59 % 1014,8 hPa 0,0 mm 25,6 km/h (4 Bft) O-SO 120 ° 4 min 0 min 11,2 °C 19,4 °C
09.05.2026 13:43 19,1 °C 61 % 1014,9 hPa 0,0 mm 23,0 km/h (4 Bft) SO 125 ° 5 min 0 min 11,4 °C 19,1 °C
09.05.2026 13:38 18,9 °C 61 % 1014,9 hPa 0,0 mm 26,7 km/h (4 Bft) S 185 ° 5 min 0 min 11,2 °C 18,9 °C
09.05.2026 13:33 19,8 °C 58 % 1014,8 hPa 0,0 mm 27,8 km/h (5 Bft) SO 140 ° 5 min 0 min 11,3 °C 19,8 °C
09.05.2026 13:28 19,6 °C 59 % 1014,8 hPa 0,0 mm 23,9 km/h (4 Bft) S 180 ° 3 min 0 min 11,4 °C 19,6 °C
09.05.2026 13:23 19,8 °C 58 % 1014,8 hPa 0,0 mm 25,1 km/h (4 Bft) O-SO 110 ° 7 min 0 min 11,3 °C 19,8 °C
09.05.2026 13:18 19,0 °C 62 % 1014,9 hPa 0,0 mm 19,9 km/h (4 Bft) S 170 ° 6 min 0 min 11,6 °C 19,0 °C
09.05.2026 13:13 18,8 °C 62 % 1014,9 hPa 0,0 mm 32,0 km/h (5 Bft) S-SO 160 ° 2 min 0 min 11,4 °C 18,8 °C
09.05.2026 13:08 18,7 °C 61 % 1015,0 hPa 0,0 mm 31,4 km/h (5 Bft) SO 145 ° 6 min 0 min 11,0 °C 18,7 °C
09.05.2026 13:03 19,1 °C 59 % 1014,9 hPa 0,0 mm 17,0 km/h (3 Bft) S 180 ° 5 min 0 min 10,9 °C 19,1 °C
09.05.2026 12:58 17,8 °C 62 % 1016,2 hPa 0,0 mm 22,1 km/h (4 Bft) S 190 ° 5 min 0 min 10,4 °C 17,8 °C
09.05.2026 12:53 19,0 °C 62 % 1016,0 hPa 0,0 mm 20,4 km/h (4 Bft) SW 230 ° 4 min 0 min 11,6 °C 19,0 °C
09.05.2026 12:48 17,9 °C 63 % 1016,2 hPa 0,0 mm 16,8 km/h (3 Bft) N-NW 340 ° 8 min 0 min 10,8 °C 17,9 °C
09.05.2026 12:43 18,6 °C 62 % 1016,0 hPa 0,0 mm 14,0 km/h (3 Bft) S 185 ° 3 min 0 min 11,2 °C 18,6 °C
09.05.2026 12:38 18,6 °C 63 % 1016,0 hPa 0,0 mm 21,7 km/h (4 Bft) W-SW 250 ° 7 min 0 min 11,4 °C 18,6 °C
09.05.2026 12:33 18,6 °C 63 % 1016,0 hPa 0,0 mm 18,4 km/h (3 Bft) W-SW 245 ° 3 min 0 min 11,4 °C 18,6 °C
09.05.2026 12:28 18,2 °C 63 % 1016,1 hPa 0,0 mm 21,0 km/h (4 Bft) N-NO 25 ° 7 min 0 min 11,0 °C 18,2 °C
09.05.2026 12:23 18,3 °C 62 % 1016,1 hPa 0,0 mm 20,0 km/h (4 Bft) S 185 ° 2 min 0 min 10,9 °C 18,3 °C
09.05.2026 12:18 18,5 °C 62 % 1016,1 hPa 0,0 mm 24,0 km/h (4 Bft) SO 130 ° 6 min 0 min 11,1 °C 18,5 °C
_ Min-Zeit 05:33 17:53 18:23 - 18:43 - - - - 18:08 05:33
Minimum _ 9,5 °C 41 % 1011,4 hPa - 0,0 km/h (0 Bft) - - - - 6,9 °C 9,5 °C
_ Max-Zeit 14:58 05:38 07:38 17:03 12:13 - - 09:18 17:03 14:38 14:58
Maximum _ 22,6 °C 85 % 1018,3 hPa 0,0 mm 35,5 km/h
W-SW (5 Bft)
- - 8 min 0 min 12,3 °C 22,6 °C
Durchschnitt _ 15,7 °C 65 % 1015,4 hPa #0,0 mm 11,3 km/h (2 Bft) W - #9:03 h #0 min. 8,8 °C 15,7 °C